Starlink 2330

operational
NORAD ID: 47874 Int'l Des: 2021-021 Owner: SPXS Country: US Constellation: starlink
LEOCIRCULARSTARLINK_TYPE

Starlink 2330について

説明を読み込み中...

リアルタイム位置

3D地球を読み込み中...

次回通過

高度履歴

Altitude vs Time

uPlot chart will show altitude changes over time

軌道要素

1 47874U 21021Q 26033.26554402 .00003576 00000-0 25871-3 0 9995
2 47874 53.0569 15.6549 0001474 75.6571 284.4582 15.06420441271625
Epoch: Feb 2, 2026 • Age: 21 hours

現在のステータス

高度 547.3 km
速度 7.59 km/s
衛星直下点 8.78°N, 5.63°W
打ち上げ日 Mar 14, 2021
運用期間 4.8 years
タイプ internet

技術仕様

分類 Payload
質量 260.00 kg
乾燥質量 248.00 kg
総質量 260.00 kg
長さ 0.20 m
直径 2.80 m
スパン 9.00 m
形状 Box + pan
製造者 SPXS
バスタイプ Starlink
フェーズステータス In Orbit
所有者/国 SPXS/US

大規模コンステレーション

Loading constellations...